Flag for U.S.A. Weather past 2 weeks in Little Rock, Arkansas, U.S.A.

Now
86 °F

Partly sunny.


Feels Like: 89 °F
Forecast: 74 / 90 °F
Wind: 7 mph from Southwest

Location: Adams Field

Current Time: Sep 2, 2014 at 5:24:11 PM

Latest Report: Sep 2, 2014 at 4:53 PM


Visibility: 10 mi

Pressure: 29.92 "Hg

Humidity: 55%

Dew point: 68 °F

Location of Little RockLocation

Historic Weather in Little Rock — Graph

°F

Little Rock temperature yesterday

Maximum temperature yesterday: 91 °F (at 3:53 PM)
Minimum temperature yesterday: 75 °F (at 3:53 AM)
Average temperature yesterday: 82 °F

Past Weeks' High & Low Weather Summary

 TemperatureHumidityPressure
High96 °F (Aug 23, 1:53 PM)90% (Aug 20, 1:53 AM)30.10 "Hg (Aug 20, 1:53 AM)
Low70 °F (Aug 19, 5:53 AM)36% (Aug 28, 4:53 PM)29.83 "Hg (Aug 19, 5:53 PM)
Average82 °F70%29.98 "Hg
* Reported Aug 18 3:53 PM — Sep 2 3:53 PM, Little Rock, Weather by CustomWeather, © 2014

Note: Actual official high and low records may vary slightly from our data, if they occured in-between our weather recording intervals... More about our weather records

Advertising

Little Rock weather history for previous 24 hours

 ConditionsComfort  
Time TempWeatherWind HumidityBarometerVisibility
3:53 PM
Sep 2
85 °FPartly sunny.13 mph51%29.90 "Hg10 mi
2:53 PM86 °FPartly sunny.No wind46%29.94 "Hg10 mi
1:53 PM84 °FBroken clouds.12 mph53%30.01 "Hg10 mi
12:53 PM80 °FMostly cloudy.15 mph69%30.07 "Hg10 mi
11:53 AM78 °FLight rain. Mostly cloudy.10 mph76%30.06 "Hg10 mi
10:53 AM83 °FCloudy.8 mph72%30.04 "Hg10 mi
9:53 AM82 °FPartly sunny.8 mph77%30.04 "Hg10 mi
8:53 AM79 °FMostly cloudy.5 mph84%30.03 "Hg7 mi
7:53 AM78 °FPartly sunny.8 mph87%30.02 "Hg7 mi
6:53 AM78 °FOvercast.6 mph84%30.02 "Hg10 mi
5:53 AM78 °FOvercast.3 mph84%29.99 "Hg10 mi
4:53 AM78 °FOvercast.5 mph84%29.97 "Hg10 mi
3:53 AM77 °FPassing clouds.3 mph88%29.96 "Hg10 mi
2:53 AM77 °FPassing clouds.6 mph88%29.93 "Hg10 mi
1:53 AM77 °FPassing clouds.No wind88%29.95 "Hg10 mi
12:53 AM78 °FClear.7 mph84%29.96 "Hg10 mi
11:53 PM
Sep 1
79 °FClear.7 mph82%29.95 "Hg10 mi
10:53 PM79 °FClear.7 mph82%29.92 "Hg10 mi
9:53 PM80 °FClear.8 mph76%29.92 "Hg10 mi
8:53 PM82 °FClear.7 mph72%29.92 "Hg10 mi
7:53 PM83 °FScattered clouds.8 mph70%29.92 "Hg10 mi
6:53 PM87 °FScattered clouds.8 mph61%29.92 "Hg10 mi
5:53 PM89 °FScattered clouds.13 mph57%29.92 "Hg10 mi
Weather by CustomWeather, © 2014

See weather overviewHow to use our weather pages